User: anonymous   Login
Location: Unspecified
(0.0000°N, 0.0000°E)
Time: 00:56:24
(UTC+00:00)
Language:

STARLINK-31753 - Orbit

View from above orbital plane
View from above orbital plane
View from above satellite
View from above satellite

Ground track
Ground track

The orbit is defined by the following mean orbital elements,

1 59484U          26145.64245896 +.00000000 +00000-0 -10229-4 0 00004
2 59484  43.0018 265.2359 0001197 266.1325  93.9390 15.27589584    00
Epoch (UTC): 25 May 2026 15:25:08
Eccentricity: 0.0001197
inclination: 43.0018°
perigee height: 482 km
apogee height: 484 km
right ascension of ascending node: 265.2359°
argument of perigee: 266.1325°
revolutions per day: 15.27589584
mean anomaly at epoch: 93.9390°

The dashed part of the orbit path shows where the satellite is in the earth's shadow,  

DLR